Погода в Плаке

Греция     37°02′59″N   25°22′16″E
темп.,
°C
ветер,
м/с
пор.,
м/с
влажн.,
%
обл.,
%
осадки,
мм/ч
давл.,
гПа
погр.,
м
28 февраля, вс
вс2823:00+14зсз34720 0.0 1019369
02:00+14ссз46730 0.0 1019427
05:00+14ссз68740 0.0 1019556
08:00+15ссз912740 0.0 1019723
11:00+16ссв911630 0.0 1021945
14:00+15с1012670 0.0 1021975
17:00+14с1316670 0.0 10221017
20:00+14с1215680 0.0 10241064
1 марта, пн
пн123:00+13ссв1417550 0.0 10251133
02:00+12с1417550 0.0 10251135
05:00+11с1417570 0.0 10241173
08:00+11с1316600 0.0 10241290
11:00+12с1416570 0.0 10241266
14:00+13с1415590 0.0 10241212
17:00+12с1315640 0.0 10231226
20:00+12с1214660 0.0 10241185
2 марта, вт
вт223:00+12с1315650 0.0 10261308
02:00+11с1315665 0.0 10261250
05:00+10с1415700 0.0 10261278
08:00+10с1314706 0.1 10281452
11:00+11с13156752 0.1 10281618
14:00+11с14156851 0.3 10281464
17:00+11с15177017 0.1 10271429
20:00+11с14166929 0.1 10281467
3 марта, ср
ср323:00+10с14166810 0.1 10281344
02:00+10с1416675 0.1 10281185
05:00+11с1619680 0.0 10271197
08:00+11с1619670 0.0 10271138
11:00+12с1518640 0.0 10271139
14:00+13с1618670 0.0 10261078
17:00+13с1517690 0.0 1025996
20:00+13с1417720 0.0 1026958
4 марта, чт
чт423:00+13с1215660 0.0 1026835
02:00+13с1114650 0.0 1025743
05:00+13с1113650 0.0 1024704
08:00+13с1013660 0.0 1024809
11:00+14с1012630 0.0 1024786
14:00+14с911630 0.0 1023747
17:00+14с811670 0.0 1022715
20:00+13с67710 0.0 1022447